This is the latest recevied weather packets stored in our database for station/object EB1DWF. If no packets are shown the sender has not sent any weather packets the latest 10 day(s).
| Time | Temp. | Humidity | Pressure | Rain* | Wind** | Luminosity | Snow |
|---|---|---|---|---|---|---|---|
| 1778226434 | 10.56° C | 100% | 1000.6 hPa | 0.25 mm | - | 63 W/m² | - |
| 1778225763 | 10.56° C | 100% | 1000.4 hPa | 0 mm | - | 58 W/m² | - |
| 1778225224 | 10.56° C | 100% | 1001.1 hPa | 0 mm | - | 16 W/m² | - |
| 1778224816 | 10.56° C | 100% | 1001 hPa | 0 mm | - | 18 W/m² | - |
| 1778224273 | 10.56° C | 100% | 1000.8 hPa | 0 mm | - | 13 W/m² | - |
| 1778223736 | 10.56° C | 100% | 1000.8 hPa | 0 mm | - | 25 W/m² | - |
| 1778223377 | 10.56° C | 100% | 1000.6 hPa | 0 mm | - | 25 W/m² | - |
| 1778222834 | 10.56° C | 100% | 1000.6 hPa | 0 mm | - | 17 W/m² | - |
| 1778222164 | 10.56° C | 100% | 1000.3 hPa | 0 mm | - | 1662 W/m² | - |
| 1778221754 | 10.56° C | 100% | 1000 hPa | 0 mm | - | 13 W/m² | - |
| 1778221083 | 10.56° C | 100% | 999.9 hPa | 0 mm | - | 20 W/m² | - |
| 1778220674 | 10.56° C | 100% | 999.9 hPa | 0 mm | - | 10 W/m² | - |
| 1778220136 | 10.56° C | 100% | 999.8 hPa | 0 mm | - | 10 W/m² | - |
| 1778219643 | 10.56° C | 100% | 999.6 hPa | 0 mm | - | 12 W/m² | - |
| 1778219104 | 10° C | 100% | 999.5 hPa | 0 mm | - | 9 W/m² | - |
| 1778218697 | 10° C | 100% | 999.4 hPa | 0 mm | - | 7 W/m² | - |
| 1778218023 | 10° C | 100% | 999.3 hPa | 0 mm | - | 5 W/m² | - |
| 1778217617 | 10.56° C | 100% | 999.3 hPa | 0 mm | - | 6 W/m² | - |
| 1778217074 | 10° C | 100% | 999.3 hPa | 0 mm | - | 6 W/m² | - |
| 1778216403 | 10° C | 100% | 999.3 hPa | 0 mm | - | 1662 W/m² | - |
| 1778216173 | 10° C | 100% | 999.2 hPa | 0 mm | - | 6 W/m² | - |
| 1778215636 | 10° C | 100% | 999.2 hPa | 0 mm | - | 5 W/m² | - |
| 1778214963 | 10° C | 100% | 999.3 hPa | 0 mm | - | 6 W/m² | - |
| 1778214423 | 10° C | 100% | 999.3 hPa | 0 mm | - | 5 W/m² | - |
| 1778214013 | 10° C | 100% | 999.3 hPa | 0 mm | - | 5 W/m² | - |
* Rain latest hour (hover to see other rain measurements)
** Current wind speed in m/s (hover to see current wind gust speed)